カタログに戻る

STARLINK-34196

運用中通信VLEO
NORAD 65324·PAYLOAD·🇺🇸 United States

打ち上げ Aug 27, 2025 から Cape Canaveral Space Force Station

Loading…

次のパス (今後24時間)

TLE

最新Source: CelesTrak SupGP

元期: Sep 14, 2026, 14:03 UTC

1 65324C 25189B   26257.58590278 -.00047174  00000+0 -15169-2 0  2576
2 65324  53.1596  47.6761 0001227  86.2427 182.1257 15.31727055    16

AllMySatでSTARLINK-34196をリアルタイム追跡

Download on the App Store